• In Uzbekistan
  • List of Countries
  • For 7 days
  • Water Temperature
  • Weather Map
  • Weather Widgets
  • user-avatar
    Login

    Hourly Weather Kitzbuhel

    Today, 13 November, Wednesday

    Time Temperature Precipitation Wind Pressure Humidity
    00:00 0°C° 1.5 mm 1 mps 665 mmHg 98%
    01:00 -2°C° 1.5 mm 0 mps 665 mmHg 98%
    02:00 -2°C° 1.1 mm 0 mps 665 mmHg 98%
    03:00 -1°C° 1.1 mm 0 mps 665 mmHg 98%
    04:00 -1°C° 1.1 mm 0 mps 664 mmHg 98%
    05:00 -1°C° 0.6 mm 1 mps 664 mmHg 98%
    06:00 -1°C° 0.6 mm 1 mps 664 mmHg 98%
    07:00 -1°C° 0.6 mm 1 mps 664 mmHg 98%
    08:00 0°C° 0.9 mm 1 mps 664 mmHg 98%
    09:00 0°C° 0.9 mm 1 mps 664 mmHg 97%
    10:00 +1°C° 0.9 mm 1 mps 664 mmHg 97%
    11:00 +1°C° 0.9 mm 1 mps 665 mmHg 97%
    12:00 +1°C° 0.9 mm 1 mps 665 mmHg 97%
    13:00 +1°C° 0.9 mm 1 mps 665 mmHg 98%
    14:00 +1°C° 0.9 mm 1 mps 665 mmHg 98%
    15:00 +1°C° 0.9 mm 1 mps 665 mmHg 98%
    16:00 +1°C° 0.9 mm 1 mps 666 mmHg 98%
    17:00 0°C° 0.7 mm 1 mps 666 mmHg 98%
    18:00 -1°C° 0.7 mm 0 mps 666 mmHg 98%
    19:00 -2°C° 0.7 mm 0 mps 667 mmHg 98%
    20:00 -2°C° 0 mm 1 mps 667 mmHg 96%
    21:00 -3°C° 0 mm 1 mps 667 mmHg 94%
    22:00 -3°C° 0 mm 1 mps 667 mmHg 92%
    23:00 -6°C° 0 mm 2 mps 667 mmHg 91%

    Tomorrow, 14 November, Thursday

    Time Temperature Precipitation Wind Pressure Humidity
    00:00 -6°C° 0 mm 2 mps 667 mmHg 89%
    01:00 -7°C° 0 mm 2 mps 667 mmHg 88%
    02:00 -6°C° 0 mm 2 mps 667 mmHg 88%
    03:00 -6°C° 0 mm 2 mps 667 mmHg 88%
    04:00 -7°C° 0 mm 3 mps 667 mmHg 88%
    05:00 -7°C° 0 mm 3 mps 667 mmHg 88%
    06:00 -7°C° 0 mm 3 mps 667 mmHg 88%
    07:00 -6°C° 0 mm 3 mps 667 mmHg 88%
    08:00 -4°C° 0 mm 3 mps 667 mmHg 89%
    09:00 -1°C° 0 mm 3 mps 667 mmHg 89%
    10:00 0°C° 0 mm 3 mps 668 mmHg 89%
    11:00 +1°C° 0 mm 3 mps 668 mmHg 90%
    12:00 +2°C° 0 mm 3 mps 668 mmHg 91%
    13:00 +3°C° 0 mm 3 mps 668 mmHg 92%
    14:00 +2°C° 0 mm 3 mps 668 mmHg 92%
    15:00 +1°C° 0 mm 3 mps 667 mmHg 91%
    16:00 0°C° 0 mm 3 mps 667 mmHg 90%
    17:00 0°C° 0 mm 3 mps 667 mmHg 90%
    18:00 -2°C° 0 mm 4 mps 667 mmHg 89%
    19:00 -3°C° 0 mm 4 mps 667 mmHg 89%
    20:00 -3°C° 0 mm 4 mps 667 mmHg 89%
    21:00 -2°C° 0 mm 4 mps 666 mmHg 89%
    22:00 -2°C° 0 mm 4 mps 666 mmHg 89%
    23:00 -2°C° 0 mm 4 mps 666 mmHg 89%

    Day after tomorrow, 15 November, Friday

    Time Temperature Precipitation Wind Pressure Humidity
    00:00 -1°C° 0 mm 4 mps 666 mmHg 88%
    01:00 -1°C° 0 mm 4 mps 665 mmHg 88%
    02:00 0°C° 0.1 mm 4 mps 665 mmHg 89%
    03:00 0°C° 0.1 mm 4 mps 664 mmHg 90%
    04:00 +1°C° 0.1 mm 4 mps 664 mmHg 90%
    05:00 +1°C° 0.1 mm 5 mps 664 mmHg 90%
    06:00 +1°C° 0.1 mm 5 mps 664 mmHg 90%
    07:00 +2°C° 0.1 mm 5 mps 664 mmHg 90%
    08:00 +2°C° 0.2 mm 3 mps 664 mmHg 91%
    09:00 +3°C° 0.2 mm 3 mps 665 mmHg 94%
    10:00 +4°C° 0.2 mm 3 mps 666 mmHg 96%
    11:00 +5°C° 0.7 mm 2 mps 666 mmHg 97%
    12:00 +5°C° 0.7 mm 2 mps 666 mmHg 98%
    13:00 +6°C° 0.7 mm 1 mps 666 mmHg 98%
    14:00 +5°C° 1.6 mm 1 mps 666 mmHg 98%
    15:00 +5°C° 1.6 mm 1 mps 666 mmHg 99%
    16:00 +4°C° 1.6 mm 1 mps 666 mmHg 99%
    17:00 +4°C° 2.1 mm 1 mps 666 mmHg 99%
    18:00 +3°C° 2.1 mm 1 mps 666 mmHg 99%
    19:00 +3°C° 2.1 mm 1 mps 666 mmHg 99%
    20:00 +3°C° 2.5 mm 1 mps 666 mmHg 99%
    21:00 +3°C° 2.5 mm 1 mps 667 mmHg 99%
    22:00 +2°C° 2.5 mm 1 mps 667 mmHg 98%
    23:00 +2°C° 1.3 mm 1 mps 668 mmHg 98%

    16 November, Saturday

    Time Temperature Precipitation Wind Pressure Humidity
    00:00 +2°C° 1.3 mm 1 mps 668 mmHg 98%
    01:00 +2°C° 1.3 mm 1 mps 669 mmHg 97%
    02:00 +2°C° 0.1 mm 1 mps 669 mmHg 96%
    03:00 +2°C° 0.1 mm 1 mps 670 mmHg 95%
    04:00 +1°C° 0.1 mm 2 mps 670 mmHg 94%
    05:00 -1°C° 0 mm 2 mps 670 mmHg 93%
    06:00 -1°C° 0 mm 2 mps 671 mmHg 92%
    07:00 -1°C° 0 mm 2 mps 671 mmHg 92%
    08:00 +1°C° 0 mm 2 mps 672 mmHg 93%
    09:00 +2°C° 0 mm 2 mps 673 mmHg 94%
    10:00 +3°C° 0 mm 2 mps 673 mmHg 95%
    11:00 +4°C° 0 mm 1 mps 673 mmHg 96%
    12:00 +5°C° 0 mm 1 mps 673 mmHg 96%
    13:00 +5°C° 0 mm 1 mps 673 mmHg 97%
    14:00 +4°C° 0 mm 1 mps 673 mmHg 96%
    15:00 +4°C° 0 mm 1 mps 673 mmHg 96%
    16:00 +4°C° 0 mm 1 mps 672 mmHg 95%
    17:00 +3°C° 0.1 mm 1 mps 672 mmHg 95%
    18:00 +2°C° 0.1 mm 2 mps 672 mmHg 95%
    19:00 +2°C° 0.1 mm 2 mps 672 mmHg 94%
    20:00 +2°C° 0.2 mm 2 mps 672 mmHg 94%
    21:00 +2°C° 0.2 mm 2 mps 672 mmHg 94%
    22:00 +2°C° 0.2 mm 2 mps 672 mmHg 94%
    23:00 +2°C° 0.7 mm 2 mps 671 mmHg 95%

    17 November, Sunday

    Time Temperature Precipitation Wind Pressure Humidity
    00:00 +3°C° 0.7 mm 1 mps 671 mmHg 96%
    01:00 +3°C° 0.7 mm 1 mps 670 mmHg 97%
    02:00 +3°C° 1.1 mm 1 mps 670 mmHg 97%
    03:00 +3°C° 1.1 mm 1 mps 669 mmHg 98%
    04:00 +3°C° 1.1 mm 1 mps 669 mmHg 98%
    05:00 +3°C° 0.5 mm 1 mps 669 mmHg 98%
    06:00 +3°C° 0.5 mm 1 mps 669 mmHg 98%
    07:00 +3°C° 0.5 mm 1 mps 669 mmHg 97%
    08:00 +4°C° 0.1 mm 1 mps 669 mmHg 98%
    09:00 +4°C° 0.1 mm 1 mps 669 mmHg 98%
    10:00 +4°C° 0.1 mm 1 mps 669 mmHg 99%
    11:00 +4°C° 0.3 mm 1 mps 668 mmHg 99%
    12:00 +4°C° 0.3 mm 1 mps 668 mmHg 99%
    13:00 +5°C° 0.3 mm 1 mps 668 mmHg 99%
    14:00 +4°C° 1.2 mm 1 mps 667 mmHg 99%
    15:00 +4°C° 1.2 mm 1 mps 667 mmHg 99%
    16:00 +4°C° 1.2 mm 1 mps 666 mmHg 99%
    17:00 +4°C° 1.2 mm 1 mps 666 mmHg 99%
    18:00 +4°C° 1.2 mm 1 mps 666 mmHg 99%
    19:00 +4°C° 1.2 mm 1 mps 666 mmHg 98%
    20:00 +3°C° 0.3 mm 2 mps 666 mmHg 97%
    21:00 +2°C° 0.3 mm 2 mps 666 mmHg 96%
    22:00 +2°C° 0.3 mm 2 mps 665 mmHg 96%
    23:00 +2°C° 0.1 mm 2 mps 665 mmHg 95%

    18 November, Monday

    Time Temperature Precipitation Wind Pressure Humidity
    00:00 +2°C° 0.1 mm 2 mps 665 mmHg 95%
    01:00 +2°C° 0.1 mm 2 mps 665 mmHg 94%
    02:00 +1°C° 0 mm 2 mps 666 mmHg 94%
    03:00 +2°C° 0 mm 1 mps 666 mmHg 95%
    04:00 +2°C° 0 mm 1 mps 666 mmHg 95%
    05:00 +2°C° 0 mm 1 mps 666 mmHg 94%
    06:00 +2°C° 0 mm 1 mps 667 mmHg 94%
    07:00 +2°C° 0 mm 1 mps 667 mmHg 93%
    08:00 +3°C° 0 mm 1 mps 668 mmHg 95%
    09:00 +4°C° 0 mm 1 mps 669 mmHg 96%
    10:00 +5°C° 0 mm 1 mps 669 mmHg 98%
    11:00 +5°C° 0 mm 1 mps 670 mmHg 98%
    12:00 +5°C° 0 mm 1 mps 670 mmHg 98%
    13:00 +6°C° 0 mm 1 mps 670 mmHg 98%
    14:00 +5°C° 0 mm 1 mps 670 mmHg 98%
    15:00 +5°C° 0 mm 1 mps 671 mmHg 97%
    16:00 +4°C° 0 mm 1 mps 671 mmHg 97%
    17:00 +4°C° 0 mm 1 mps 671 mmHg 96%
    18:00 +4°C° 0 mm 1 mps 672 mmHg 96%
    19:00 +3°C° 0 mm 1 mps 672 mmHg 95%
    20:00 +2°C° 0 mm 2 mps 672 mmHg 94%
    21:00 +2°C° 0 mm 2 mps 672 mmHg 93%
    22:00 +1°C° 0 mm 2 mps 672 mmHg 91%
    23:00 +1°C° 0 mm 2 mps 672 mmHg 91%
    Show more